GFSMW_500_rhum_066.txt.gz
RH
20 18 17 17 16 15 15 15 14 11 12 41 68 53 30 21 29 20 22 23 23 20 16 16 16 16 16 16 16 16 16 17 20 23 25 26 26 25 30 35 41 40 40
25 22 14 13 12 12 13 15 19 28 47 54 46 26 23 26 21 22 22 19 15 15 16 16 16 16 16 15 14 15 17 21 22 20 20 20 26 32 40 41 39 47 66
21 20 16 14 16 16 18 22 26 34 36 30 29 43 50 25 20 18 16 14 16 16 16 15 15 15 13 13 16 18 20 20 23 25 24 29 37 41 44 39 46 68 76
54 25 18 15 16 17 19 20 21 23 42 54 51 77 86 46 20 19 16 17 16 16 15 15 13 12 13 18 22 22 24 24 28 28 36 49 53 41 38 56 71 76 78
53 59 46 40 63 40 47 38 21 39 59 80 52 80 75 63 18 17 17 16 15 14 14 12 14 20 26 46 70 44 25 23 28 41 50 48 43 57 74 72 78 77 78
44 55 32 52 67 42 65 54 42 72 75 58 63 85 76 32 19 24 15 14 14 14 15 19 21 27 54 79 87 69 28 26 43 48 38 46 70 75 74 73 76 76 84
37 37 22 33 38 58 76 90 88 86 90 48 43 62 40 17 31 21 16 15 17 22 27 20 38 49 54 67 56 62 34 48 40 40 60 79 75 70 76 79 75 65 68
29 21 17 23 41 54 84 96 57 21 19 24 44 41 19 34 35 17 18 22 33 35 31 48 96 82 71 53 64 39 47 41 44 68 77 78 86 94 94 90 90 89 92
18 18 20 19 30 46 85 52 20 20 22 24 31 23 29 46 19 15 29 50 30 39 45 71 91 87 55 36 45 48 38 43 71 78 82 92 96 99 100 96 99 100 89
20 19 20 19 19 22 51 30 24 24 23 24 27 32 35 21 16 30 53 28 18 30 57 47 76 42 39 50 44 39 56 83 85 91 94 99 100 100 100 100 86 46 17
34 38 26 22 26 30 38 42 31 28 29 32 31 29 25 26 56 62 60 60 55 39 34 38 32 42 46 42 48 76 86 90 99 100 100 100 100 100 91 52 29 15 10
51 74 66 58 56 56 78 59 39 36 36 35 40 44 72 75 91 78 64 99 84 44 23 32 43 46 45 60 83 89 96 100 100 100 100 100 91 50 47 28 17 12 10
18 42 66 77 82 61 62 65 58 53 68 83 78 80 76 100 66 61 85 100 43 22 35 46 46 48 72 84 90 98 98 98 96 80 84 48 39 60 35 24 16 15 13
20 18 21 34 39 44 62 72 75 93 92 82 74 73 84 84 82 73 70 36 22 38 48 46 52 77 92 97 95 92 84 56 63 90 64 44 62 46 40 19 19 16 15
25 23 31 36 35 43 59 74 81 95 92 78 63 91 100 77 52 66 37 26 44 50 47 57 81 92 94 90 78 53 12 29 70 51 49 55 46 49 37 23 22 16 18
28 30 29 25 37 55 61 66 76 82 59 67 80 92 65 77 68 28 32 50 51 47 60 76 86 88 87 61 21 5 10 25 26 52 54 41 44 52 32 28 21 17 22
24 22 22 23 25 45 53 60 60 19 25 44 43 49 42 20 29 44 55 50 50 52 73 84 81 74 38 8 5 6 7 18 43 58 45 40 56 42 32 27 20 18 26
26 28 28 26 27 21 14 12 10 10 10 11 13 16 21 40 55 56 51 44 50 82 86 82 63 22 6 6 6 8 13 38 58 41 47 58 46 37 31 23 18 19 32
35 32 30 22 11 12 12 9 9 10 12 14 17 30 52 58 55 44 39 58 87 84 75 50 14 6 6 6 8 14 24 42 46 57 63 47 40 35 24 19 18 21 37
35 25 13 13 13 11 11 12 14 15 16 23 38 55 58 45 35 41 80 88 79 71 40 11 6 6 6 6 9 17 29 40 54 54 51 45 37 26 19 18 20 26 42
13 14 15 14 16 16 17 18 20 21 28 40 52 48 36 35 63 86 83 79 63 32 11 6 6 6 7 8 12 27 36 43 43 50 45 36 24 18 18 19 25 31 49
14 16 18 19 20 25 30 28 27 32 39 47 41 38 53 80 85 83 79 55 30 13 7 7 7 7 8 12 22 31 41 42 37 36 31 22 20 20 20 23 30 36 54
17 20 24 31 40 44 40 36 41 46 46 41 48 75 86 87 85 73 53 32 13 8 8 8 8 8 9 15 37 43 39 34 29 22 19 21 25 27 28 30 32 37 58
21 22 27 37 48 50 48 46 47 44 47 66 82 87 90 87 74 55 31 16 8 8 9 9 9 10 11 22 33 30 23 19 19 21 21 23 35 35 31 29 33 40 58
25 28 36 49 55 57 54 48 48 58 75 86 92 94 89 75 53 24 11 9 10 10 10 11 12 16 17 20 18 15 16 23 26 24 24 29 45 45 44 32 30 40 56
36 42 52 63 66 63 56 61 70 80 92 96 97 92 75 49 24 12 9 10 10 11 12 16 24 23 20 15 14 16 24 25 20 23 97 88 51 74 45 39 30 41 55

GFSMW_500_rhum_069.txt.gz
RH
56 84 77 65 63 70 63 61 56 43 22 12 14 22 43 52 60 65 28 21 23 25 24 17 16 16 15 14 13 10 9 11 12 12 12 12 12 16 25 34 38 38 34
30 23 22 22 21 23 28 25 19 16 23 14 42 61 46 33 48 29 22 23 24 18 16 17 16 14 12 11 10 10 13 16 20 31 27 27 22 32 39 39 36 34 39
19 20 19 19 18 16 17 17 17 20 40 58 45 40 23 48 46 25 23 22 18 17 17 15 13 12 11 11 12 15 17 27 34 55 80 51 32 37 38 34 38 48 60
21 17 14 12 11 12 13 15 21 24 29 38 41 40 55 77 90 58 20 17 19 17 14 13 12 12 14 15 13 21 20 30 44 62 56 44 41 38 33 39 61 60 64
40 29 20 19 20 29 21 24 25 25 28 64 79 67 73 98 96 80 19 26 31 18 14 14 15 22 21 12 16 36 31 51 48 34 36 44 38 37 49 58 61 56 61
55 46 37 50 50 56 56 47 62 36 58 93 86 91 73 97 96 38 20 38 35 18 17 23 29 20 18 15 21 35 47 58 39 40 44 38 40 60 65 58 58 55 69
68 47 37 40 34 58 68 54 73 65 80 94 98 68 50 90 87 29 32 50 25 23 31 40 30 30 34 53 56 79 80 86 44 44 37 44 63 67 64 61 66 65 55
55 44 41 39 35 52 61 88 93 95 97 58 20 22 39 64 59 34 38 37 26 35 43 53 63 62 52 82 48 34 39 45 43 39 54 73 72 72 75 78 59 25 16
39 31 24 18 18 34 66 72 90 85 86 56 24 26 53 47 55 87 74 37 42 65 83 66 78 95 58 41 27 44 47 42 40 51 70 78 81 85 71 34 15 27 16
33 30 20 18 19 21 35 46 69 50 27 32 27 38 46 44 52 64 69 80 86 91 100 71 76 100 98 34 41 48 42 45 64 76 83 87 74 45 10 15 33 22 18
37 36 24 21 20 21 25 36 51 53 67 41 29 29 37 50 89 98 85 93 99 100 97 100 100 100 54 40 51 45 49 63 75 85 84 59 23 7 10 13 15 26 37
16 22 52 88 66 70 70 66 72 69 62 53 58 65 76 96 98 79 97 87 100 100 100 98 100 76 41 52 47 48 56 77 86 78 42 9 6 6 8 18 34 47 43
15 14 14 18 78 99 100 83 72 67 74 82 86 97 98 96 94 92 97 100 100 88 96 98 84 43 53 48 43 50 80 83 68 29 7 6 6 8 16 42 50 45 48
21 21 18 16 31 32 32 52 60 83 92 98 99 98 98 98 94 82 100 100 73 31 56 26 44 53 46 40 60 83 80 61 25 8 5 6 7 13 33 51 46 50 50
16 20 21 24 23 27 36 74 85 94 100 98 100 98 80 64 93 98 99 77 25 87 40 50 52 44 41 71 83 79 55 25 8 6 6 7 12 24 40 44 50 60 48
8 12 21 24 28 34 60 79 82 86 81 83 92 52 17 100 48 20 13 32 71 42 54 52 39 42 82 84 80 54 27 9 6 6 7 9 14 29 41 53 62 54 47
18 17 20 22 22 24 34 46 62 38 25 25 24 12 9 11 12 16 19 26 40 53 46 38 52 81 88 76 48 24 11 8 7 8 8 10 22 40 53 59 57 52 41
24 25 27 28 28 30 29 35 27 12 10 10 12 13 14 16 18 21 29 43 46 38 38 67 83 85 72 43 23 12 8 8 8 9 10 16 27 44 53 55 44 37 28
28 28 29 31 33 31 16 13 12 13 15 16 18 23 25 24 27 35 44 42 39 54 79 86 84 70 45 23 14 9 9 9 9 10 15 28 38 45 43 36 29 23 21
30 31 28 19 13 14 15 16 17 18 23 30 34 33 32 35 38 42 40 48 70 83 87 84 70 52 33 15 10 10 10 10 10 11 21 37 40 33 25 21 21 21 24
23 14 14 14 15 16 18 21 26 33 36 42 43 44 44 42 41 46 62 79 85 86 84 74 56 35 17 11 10 10 10 11 12 17 20 19 19 18 20 22 23 27 28
14 14 15 16 18 19 22 26 28 31 40 48 53 52 46 47 58 71 81 86 86 84 74 59 44 22 12 10 11 12 12 16 21 23 17 14 17 20 26 26 32 42 33
16 17 19 21 22 24 29 34 40 48 57 61 59 53 59 69 74 82 87 90 86 73 57 42 28 16 11 11 11 10 12 22 28 17 14 15 22 26 25 26 44 52 44
19 22 25 29 32 35 40 45 54 62 68 66 65 76 78 81 87 88 87 84 73 59 41 24 14 12 12 11 10 10 14 20 17 15 15 23 22 13 21 100 96 76 82
29 36 42 43 44 45 49 54 65 74 76 81 83 83 88 93 92 90 86 77 60 37 21 12 12 12 11 10 11 15 20 17 14 14 18 20 10 14 60 100 100 96 80
41 39 43 54 57 57 63 78 85 90 90 86 85 91 92 91 89 86 82 63 38 18 12 13 13 13 13 15 16 23 16 14 14 14 17 12 13 23 93 100 96 82 66

GFSMW_500_rhum_072.txt.gz
RH
90 88 95 97 91 84 77 82 84 76 68 42 36 46 42 37 48 53 74 92 23 23 25 27 23 16 16 16 14 12 9 9 8 10 13 11 14 18 22 28 32 34 34
74 61 64 63 62 65 58 48 39 54 38 23 23 33 38 44 58 74 85 34 23 25 26 19 17 17 15 14 11 10 11 10 10 18 21 16 18 20 32 36 37 33 31
26 31 24 24 26 31 31 38 32 24 26 36 30 52 63 63 42 75 67 27 26 24 18 17 16 14 14 15 14 14 12 9 10 17 26 29 30 35 34 34 35 30 35
19 20 18 17 18 16 16 15 14 16 22 34 54 46 39 36 37 60 67 50 27 18 20 25 19 16 15 17 14 11 9 21 13 12 28 41 43 53 41 35 28 33 52
23 20 17 14 13 13 14 17 19 21 23 22 28 40 49 53 68 93 98 93 32 19 25 27 26 20 14 27 27 28 26 19 23 22 28 34 42 43 37 31 41 56 54
46 31 31 31 32 31 31 54 44 54 55 34 37 63 80 87 86 91 98 97 33 26 29 33 32 24 41 32 28 41 46 50 56 33 30 46 46 40 33 41 61 58 56
59 76 62 51 36 38 36 50 67 43 57 44 66 95 97 97 78 46 88 94 60 27 46 52 38 43 49 27 46 46 66 66 80 47 40 48 40 35 49 63 60 50 39
46 76 75 50 40 43 40 52 66 65 69 67 74 92 41 26 31 50 74 55 52 70 70 55 55 61 62 64 68 78 84 100 93 42 48 42 34 47 66 68 54 36 14
64 58 60 54 38 30 26 35 65 70 80 98 90 78 82 52 32 53 62 47 52 55 58 68 66 85 94 73 82 86 92 98 68 48 46 38 51 73 76 58 32 11 8
57 51 49 45 22 20 21 22 52 47 50 74 41 29 37 35 34 45 49 78 90 97 86 82 91 99 100 100 96 87 76 39 50 50 38 55 78 77 57 30 11 6 7
55 60 46 30 23 22 21 21 25 38 53 60 64 76 76 67 59 82 100 99 96 97 100 100 100 100 100 89 63 76 36 53 52 37 56 82 74 57 28 12 7 8 8
34 22 26 26 28 46 36 36 54 75 84 88 80 62 53 70 89 97 99 98 100 100 100 100 99 95 98 41 50 67 53 54 41 65 76 73 55 29 12 8 8 8 8
19 15 15 17 22 48 71 89 93 94 98 80 66 55 77 92 99 99 99 98 97 100 100 100 99 90 76 40 57 54 56 39 68 77 74 57 32 13 9 9 8 9 10
11 8 8 12 18 17 16 20 32 31 34 60 64 96 96 99 98 99 94 28 72 100 100 92 82 69 42 41 56 53 39 70 77 76 57 36 17 10 10 9 9 10 14
7 8 7 8 15 17 16 18 22 34 54 53 73 95 97 90 95 96 33 60 98 99 57 79 93 49 40 57 44 43 74 80 78 61 41 24 13 11 10 10 10 15 26
15 14 12 10 12 21 20 20 32 62 61 69 98 78 29 36 32 14 11 13 34 14 73 25 33 50 48 38 57 80 83 80 67 47 26 15 13 12 10 10 13 21 34
22 25 25 25 24 25 31 63 38 34 57 54 59 33 14 12 13 16 18 21 22 24 29 36 43 42 45 73 86 87 80 69 51 29 17 14 12 11 9 11 17 22 22
22 22 24 27 30 35 36 45 60 58 53 34 15 14 16 18 24 31 34 35 38 41 41 42 44 59 80 89 88 82 67 50 31 20 16 13 11 10 14 20 25 22 17
24 23 25 28 33 39 43 42 36 18 15 15 16 18 23 29 35 37 43 47 50 47 44 54 68 82 88 86 83 66 52 38 24 19 15 12 9 12 16 20 20 16 18
27 30 29 31 33 27 18 16 16 16 17 18 21 27 32 38 42 48 55 56 52 53 66 77 85 81 82 81 69 50 39 30 26 21 14 9 9 12 20 16 15 16 24
25 29 28 17 14 14 14 15 16 18 21 24 27 33 39 46 54 59 63 60 67 76 81 85 83 82 79 72 60 42 25 19 19 14 10 9 12 13 14 15 15 20 24
16 14 14 15 15 16 17 19 22 24 27 33 37 42 47 54 66 70 72 79 80 78 81 82 81 75 73 68 56 33 17 14 13 11 10 11 12 12 12 13 16 19 15
15 15 17 18 19 21 23 27 32 38 40 41 46 51 63 75 81 86 86 80 80 81 80 80 77 73 72 66 45 25 18 15 11 10 10 11 10 11 10 9 16 14 14
20 22 23 25 29 34 38 37 37 44 55 58 62 74 89 91 90 85 82 82 83 82 84 83 81 78 71 55 33 25 18 13 11 12 12 10 11 11 6 11 12 12 18
32 32 32 34 37 39 40 44 61 69 70 76 88 98 95 90 86 82 85 87 88 86 83 84 83 75 58 44 34 22 15 12 14 14 13 12 13 8 8 11 11 14 27
46 48 52 54 59 64 76 85 84 89 96 100 100 93 89 90 89 85 84 96 92 87 89 87 80 64 51 40 24 16 15 22 21 19 14 15 12 7 9 10 12 16 22

GFSMW_500_rhum_078.txt.gz
RH
80 61 96 100 96 90 89 90 96 95 97 98 95 87 89 96 94 92 95 88 80 83 83 90 20 19 24 25 23 17 16 16 15 13 13 13 15 12 9 10 13 16 18
56 70 96 94 93 91 91 97 96 94 72 56 22 29 36 45 47 63 64 65 61 78 98 59 21 23 24 24 20 17 19 23 18 17 21 17 11 10 19 21 17 14 14
20 28 48 41 53 37 25 25 28 57 51 40 29 30 26 51 57 63 96 69 67 70 89 82 44 24 25 22 18 20 32 27 22 42 32 23 20 12 13 11 11 12 15
46 19 15 13 11 11 11 13 12 12 20 14 42 45 38 33 32 35 52 58 68 82 100 92 47 26 25 24 38 33 35 36 17 25 32 27 42 58 47 52 48 29 20
48 54 38 34 25 18 14 14 14 19 27 20 23 29 43 29 44 55 64 44 65 60 76 100 99 98 81 54 72 77 72 49 44 36 22 32 56 81 68 62 63 36 42
40 54 56 47 60 45 49 43 44 48 44 56 55 52 54 52 46 29 47 67 85 88 90 86 92 90 96 79 66 55 64 62 62 60 47 55 64 81 81 69 71 27 38
28 54 60 54 66 73 47 41 41 42 44 53 57 57 52 63 88 73 58 82 97 94 97 96 91 85 83 67 57 67 85 78 70 68 90 100 97 94 100 93 43 39 41
46 39 48 55 41 47 54 41 30 27 25 24 54 58 64 71 74 74 86 85 82 74 37 52 85 99 92 93 88 76 85 87 91 99 97 100 99 100 96 70 51 41 46
62 45 57 44 55 48 32 34 27 20 18 17 24 47 57 39 46 62 66 40 44 62 67 82 76 82 95 100 96 76 93 99 100 100 100 100 100 100 89 73 50 43 57
42 47 53 60 53 60 48 40 32 23 20 19 20 21 31 26 33 56 51 55 75 85 75 62 84 96 99 98 87 89 91 98 100 100 100 100 100 100 99 64 44 60 62
36 39 61 78 70 61 70 48 44 33 22 16 20 22 32 52 64 65 68 89 93 67 66 83 92 98 99 97 92 98 99 99 100 99 98 98 83 60 70 48 64 67 67
42 41 38 48 55 48 34 15 18 18 13 12 13 36 71 85 80 83 86 81 57 79 88 98 98 99 99 99 100 100 100 93 100 100 100 74 31 44 47 67 66 69 60
31 34 30 40 37 27 20 15 16 22 19 17 50 77 75 79 93 65 75 59 82 90 85 89 55 67 75 46 94 98 32 53 95 75 40 52 52 56 87 75 68 59 54
49 24 11 15 16 13 10 7 6 13 43 27 38 62 94 77 72 100 92 87 86 98 98 49 29 38 18 17 20 26 33 37 46 58 59 55 80 95 78 69 64 58 50
61 18 14 7 5 5 8 12 16 21 43 57 64 51 69 80 96 100 93 100 100 93 40 39 21 18 23 30 36 39 46 55 62 61 76 98 93 80 76 68 61 54 50
39 11 7 7 7 9 14 20 26 45 65 54 56 70 85 72 89 99 100 96 79 37 31 21 22 25 30 35 43 50 61 71 86 99 98 91 84 82 73 67 63 55 54
10 9 8 8 8 13 20 31 29 30 28 26 38 54 79 99 97 96 88 65 30 23 21 25 28 33 38 44 55 68 83 98 96 92 88 88 86 80 73 68 66 64 65
12 8 7 8 12 19 23 21 21 19 19 36 61 74 88 85 64 43 20 20 21 22 25 28 34 42 48 56 74 96 89 86 86 85 90 85 81 79 73 68 70 74 73
16 10 10 8 8 8 9 13 18 20 22 31 31 29 27 26 19 17 18 19 22 25 30 41 47 55 62 78 95 88 86 88 81 86 87 84 79 77 78 79 78 78 74
16 16 15 11 7 6 8 10 16 22 27 27 20 15 16 16 17 19 22 26 32 42 48 56 67 75 87 92 93 90 85 77 78 84 85 82 78 82 85 84 82 75 68
22 20 17 15 10 8 10 13 19 22 18 14 15 16 17 20 23 28 36 46 51 53 70 79 91 93 98 84 86 87 87 75 76 80 84 86 86 87 87 86 83 75 62
17 29 29 25 17 13 10 10 12 13 15 16 18 20 25 30 34 37 43 53 66 84 88 99 96 100 98 86 85 93 83 84 87 91 90 87 88 88 87 85 80 63 33
45 51 46 39 26 20 16 14 16 17 19 22 25 29 31 39 58 69 78 78 84 100 100 100 100 100 100 89 96 92 95 96 92 87 85 84 88 88 87 84 65 32 16
39 42 53 51 50 44 35 26 24 25 31 42 55 61 63 62 69 84 96 100 100 100 100 100 100 100 100 100 97 94 91 91 93 92 96 96 95 94 87 64 26 17 17
81 55 44 64 84 83 52 48 59 71 82 92 87 86 89 95 99 100 100 100 100 100 100 100 100 100 100 97 93 94 98 98 99 100 97 93 92 87 58 22 16 17 22
76 84 75 74 90 92 79 91 95 94 99 100 100 100 99 100 100 100 100 100 100 100 100 100 100 98 95 99 99 100 100 99 97 96 91 90 78 40 16 15 17 24 30

GFSMW_500_rhum_084.txt.gz
RH
53 86 83 49 47 44 54 69 60 85 74 69 58 58 85 93 89 94 98 91 81 74 83 81 66 65 76 70 75 33 20 25 26 25 20 17 16 19 21 29 27 21 22
36 39 34 56 84 69 59 67 72 73 62 52 55 65 80 78 84 90 98 100 100 95 99 99 95 96 96 87 24 21 24 25 24 23 20 17 21 33 52 50 37 34 34
32 18 22 24 24 60 86 79 75 65 45 38 52 62 80 90 92 84 89 86 96 90 92 99 94 98 92 54 22 23 25 27 26 23 22 19 42 60 63 62 55 52 54
51 41 26 14 19 18 16 19 24 28 21 26 30 27 24 26 30 33 32 34 47 66 97 98 80 87 91 95 93 91 85 85 84 72 65 53 43 51 59 61 64 73 66
36 56 45 42 29 25 33 33 29 29 32 36 30 27 31 33 28 30 30 25 31 48 77 52 59 92 72 79 83 87 96 98 91 87 92 80 84 89 70 83 81 70 77
35 39 57 60 52 50 38 28 30 38 28 27 34 36 35 33 34 46 51 61 51 33 57 52 51 67 94 99 90 72 80 69 63 78 93 96 99 100 98 73 71 67 61
30 31 36 51 64 43 50 38 29 27 26 24 22 22 25 34 40 47 48 50 54 58 59 74 86 74 55 46 63 70 65 62 72 88 92 100 100 100 84 76 81 84 92
36 34 33 29 42 58 42 39 27 24 23 20 19 18 16 22 46 36 24 36 32 84 81 60 51 36 44 60 75 70 55 63 93 99 99 97 99 95 81 69 72 91 99
46 28 28 35 37 51 59 58 36 40 36 29 22 18 17 38 47 43 30 21 40 80 78 65 62 60 68 77 80 50 63 80 90 100 99 100 95 62 54 51 86 90 59
56 48 35 34 42 49 71 86 86 87 72 69 47 36 29 22 38 41 55 52 27 62 84 93 98 98 99 87 76 57 68 71 66 63 82 75 76 24 23 31 72 61 43
58 54 29 22 30 35 53 85 95 98 83 66 52 61 40 22 26 43 50 64 62 77 82 98 99 98 96 86 68 65 75 65 39 28 30 26 22 30 40 43 46 49 61
62 38 41 34 27 24 30 44 67 84 84 76 53 60 51 74 70 43 64 96 98 97 99 98 98 93 79 74 72 79 85 62 32 21 20 26 30 34 33 34 49 67 79
44 35 52 76 44 27 22 22 50 68 66 59 72 61 41 47 30 30 70 88 97 97 98 97 95 88 91 90 99 100 99 44 18 20 22 26 32 35 40 60 71 83 88
74 49 60 65 49 32 12 13 13 17 23 46 32 30 33 44 60 71 92 97 94 81 85 94 95 95 98 99 98 85 75 24 23 29 32 38 41 48 63 70 80 84 80
76 54 55 51 55 19 14 10 5 6 7 8 15 48 63 70 77 85 90 66 58 80 75 83 82 84 91 81 50 37 31 23 28 69 81 48 46 53 71 86 94 88 84
62 36 54 52 32 18 9 6 6 6 7 11 34 44 34 37 40 49 43 35 49 52 48 53 74 58 29 36 51 38 29 31 46 53 52 59 73 83 89 99 100 100 94
46 28 31 42 43 16 9 16 18 11 9 28 37 38 26 28 20 20 22 22 33 33 22 21 17 29 28 24 23 27 83 56 51 60 82 93 90 92 94 98 100 97 99
32 50 52 39 31 20 14 19 17 20 28 37 35 20 19 15 9 11 12 14 17 18 15 15 20 19 24 23 31 43 60 63 77 89 92 88 93 95 95 93 99 100 100
45 47 38 29 25 21 21 28 24 22 27 23 23 34 22 11 10 11 12 11 12 12 15 16 16 20 25 34 43 53 76 87 89 97 98 100 100 98 91 92 99 100 100
42 48 40 22 21 28 30 24 17 22 19 20 28 26 20 17 14 11 11 11 13 17 19 23 28 34 39 47 68 90 100 100 100 100 100 99 96 95 98 100 100 100 100
36 33 30 26 18 14 12 12 19 16 20 30 34 36 31 26 23 19 17 18 22 26 33 35 47 73 94 100 100 100 100 100 99 98 98 96 97 100 100 100 100 97 94
42 36 34 34 35 36 36 30 26 32 40 45 47 46 48 61 60 39 29 29 33 43 70 90 95 97 98 100 100 98 98 99 97 93 93 98 100 100 100 100 100 98 96
46 46 40 37 42 42 40 43 50 59 66 61 50 53 67 87 91 77 54 56 76 94 96 100 100 98 96 95 96 100 100 100 98 100 100 100 100 100 100 100 100 100 100
61 62 58 48 55 62 56 55 66 69 85 100 97 95 94 89 92 99 95 94 100 100 100 100 100 100 98 100 100 95 98 100 100 100 100 100 100 100 100 100 100 100 100
91 87 80 77 82 80 76 76 77 75 81 84 85 91 95 96 100 100 100 100 100 100 99 96 96 100 100 100 100 100 100 100 100 100 100 100 100 100 100 100 100 100 100
84 88 85 85 83 84 85 90 92 93 100 100 100 99 99 97 100 100 100 99 98 99 100 100 100 100 100 100 100 100 100 100 100 100 100 100 100 100 100 100 100 100 97

GFSMW_500_rhum_087.txt.gz
RH
43 46 62 55 20 27 49 47 44 47 65 64 69 80 75 81 93 93 90 99 96 97 94 85 66 83 85 55 55 75 79 59 27 20 24 26 25 23 20 19 22 35 51
22 34 24 76 72 63 55 69 57 55 65 60 55 55 69 95 84 88 94 94 99 96 85 84 66 54 49 76 76 80 72 38 21 24 25 26 26 25 28 34 54 67 69
30 21 25 36 86 96 80 66 71 64 71 64 57 61 73 72 80 79 87 79 74 80 89 92 90 85 94 92 92 96 28 21 22 24 24 31 48 52 59 54 51 49 53
36 34 27 18 30 28 64 57 33 27 30 48 67 73 73 74 76 80 84 82 88 92 94 98 100 99 99 99 100 63 37 46 70 80 81 76 69 76 80 78 67 71 79
40 39 35 36 23 30 24 25 26 22 27 26 22 18 20 23 27 34 33 42 49 56 81 94 98 85 75 94 100 92 85 82 90 87 89 84 72 72 80 92 93 91 82
33 37 41 35 42 32 29 33 36 33 37 35 29 30 33 32 29 32 33 34 34 35 40 59 83 65 78 94 86 92 92 96 69 62 57 54 58 69 80 96 98 91 77
32 30 31 37 44 36 36 36 29 27 25 24 26 32 36 37 33 34 40 49 53 56 51 44 56 60 68 75 89 78 62 55 69 73 53 49 67 79 99 99 99 92 58
36 31 28 29 36 48 37 31 26 19 18 19 20 19 19 17 21 27 30 26 31 35 34 65 78 80 66 63 69 40 47 55 68 63 38 77 70 75 94 94 95 79 30
67 54 32 28 38 61 74 62 49 32 39 33 29 24 19 18 22 40 45 44 38 24 25 74 91 77 74 86 87 68 76 78 76 51 53 65 56 55 62 96 66 28 21
78 70 46 46 30 53 56 83 96 91 88 94 71 50 36 34 29 26 24 36 36 52 57 36 64 81 88 92 97 91 97 90 87 56 94 69 48 32 21 20 21 25 24
60 74 62 62 34 35 57 53 75 98 98 97 82 78 61 61 58 58 65 57 72 73 90 94 90 98 95 96 99 94 81 68 64 71 77 74 55 25 18 19 20 21 24
60 63 56 39 48 38 39 37 39 69 95 97 95 90 57 57 55 49 60 66 63 70 98 99 97 96 98 96 98 97 77 75 76 84 89 84 53 22 19 20 24 32 44
90 74 57 54 66 66 35 32 35 43 80 97 96 82 61 60 58 46 42 49 61 91 97 97 98 98 91 97 99 88 82 82 81 88 72 72 44 19 19 24 43 58 71
94 83 67 56 77 67 43 35 19 15 16 26 23 29 36 29 40 62 90 94 97 98 91 72 63 83 78 89 93 75 79 87 76 50 40 32 23 22 33 49 69 89 93
94 86 56 57 52 56 34 34 18 13 7 5 6 7 8 13 47 62 61 72 79 85 74 45 74 71 58 61 68 72 47 33 28 68 72 23 29 45 62 84 99 100 100
95 83 66 48 60 68 59 25 16 12 8 6 7 8 21 36 44 45 44 60 51 34 53 58 51 37 38 43 54 45 45 24 41 96 34 41 53 84 82 100 100 100 100
68 63 44 38 50 47 47 28 19 10 11 17 19 22 36 46 46 44 42 41 24 47 36 35 26 34 58 67 49 39 29 76 94 87 59 61 70 92 100 100 100 100 100
51 60 50 30 42 35 39 33 29 14 14 21 37 46 46 45 31 42 39 21 20 14 11 11 15 24 48 56 64 43 76 56 50 53 79 93 100 100 100 100 100 100 100
53 65 66 34 41 35 20 18 19 15 16 30 38 35 37 39 37 32 26 23 21 17 13 12 12 39 38 44 41 70 49 68 93 100 94 94 100 100 100 100 100 100 100
59 47 43 42 46 34 28 17 15 19 22 26 25 26 31 25 21 33 37 34 30 30 30 29 23 20 22 30 45 70 90 100 84 89 100 100 100 100 100 100 100 100 100
56 39 36 37 36 33 30 28 24 28 31 32 30 18 15 24 37 43 44 43 44 65 68 68 53 35 38 49 81 100 100 100 100 100 100 100 100 100 100 100 100 100 100
48 35 40 57 45 44 39 34 36 38 39 37 37 39 47 56 60 56 51 46 48 61 72 83 80 66 66 81 100 100 100 100 100 100 100 100 100 100 100 100 100 100 100
88 92 94 70 50 54 54 48 45 48 54 48 45 50 50 55 68 81 82 81 84 86 90 95 100 97 96 100 100 100 100 100 100 100 99 100 100 100 100 100 100 100 100
83 77 71 72 86 84 82 81 76 74 78 74 71 68 68 69 72 79 85 88 94 96 98 91 86 86 92 98 100 100 100 100 100 100 100 100 100 100 100 100 100 100 100
90 94 98 97 95 96 96 88 86 84 83 86 84 84 89 90 96 100 100 100 100 99 97 98 100 100 100 100 95 96 98 100 100 100 100 100 100 100 100 100 100 100 100
100 100 98 98 98 95 87 88 91 93 89 79 75 81 85 95 100 99 99 100 100 100 100 100 100 100 100 100 100 100 100 100 100 100 100 100 100 100 100 100 100 100 100